Skip Page Navigation
NASA JPL Caltech
NASA Logo - Jet Propulsion Laboratory + View the NASA Portal
+ Center for Near-Earth Object Studies
JPL Home Earth Solar System Stars & Galaxies Technology
JPL Solar System Dynamics
BODIES ORBITS EPHEMERIDES TOOLS PHYSICAL DATA DISCOVERY FAQ SITE MAP
IMPORTANT: The SSD Announcement email list is now available. Major changes are coming in the near future, including possible hostname and/or URL changes. To be notified of such changes, subscribe to this email list.

Please visit this page for more details.


JPL Small-Body Database Browser
Search: [ help ]  
351703 (2006 BS162)
Classification: Outer Main-belt Asteroid          SPK-ID: 2351703
Ephemeris | Orbit Diagram | Orbital Elements | Mission Design | Physical Parameters | Discovery Circumstances | Close-Approach Data ]

[ show orbit diagram ]
Orbital Elements at Epoch 2458600.5 (2019-Apr-27.0) TDB
Reference: JPL 9 (heliocentric ecliptic J2000)
 Element Value Uncertainty (1-sigma)   Units 
e .1397565689996312 8.767e-08  
a 3.966887946604555 7.2375e-08 au
q 3.412489297581111 3.7646e-07 au
i 2.789541902777112 9.4485e-06 deg
node 125.0180031391472 0.00025589 deg
peri 296.2321725385229 0.00025999 deg
M 308.6107955338086 4.4632e-05 deg
tp 2459012.448305042471
(2020-Jun-11.94830504)
0.00036126 TDB
period 2885.847161009397
7.90
7.8977e-05
2.162e-07
d
yr
n .1247467311727212 3.4139e-09 deg/d
Q 4.521286595628 8.2489e-08 au
  Orbit Determination Parameters
   # obs. used (total)      88  
   data-arc span      5881 days (16.10 yr)  
   first obs. used      2003-09-18  
   last obs. used      2019-10-25  
   planetary ephem.      DE431  
   SB-pert. ephem.      SB431-N16  
   condition code      0  
   norm. resid. RMS      .60127  
   source      ORB  
   producer      Otto Matic  
   solution date      2019-Nov-08 10:49:06  

Additional Information
 Earth MOID = 2.4264 au 
 Jupiter MOID = .822317 au 
 T_jup = 3.039 
[ show covariance matrix ]

Ephemeris | Orbit Diagram | Orbital Elements | Mission Design | Physical Parameters | Discovery Circumstances | Close-Approach Data ]

Physical Parameter Table
Parameter Symbol Value Units Sigma Reference Notes
absolute magnitude H 15.7   n/a MPO455546  

351703 (2006 BS162)          Discovered 2006-Jan-26 by Mt. Lemmon Survey at Mount Lemmon
Reference: 20130127/Numbers.arcLast Updated: 2013-01-31

[ show close-approach data ]
Ephemeris | Orbit Diagram | Orbital Elements | Mission Design | Physical Parameters | Discovery Circumstances | Close-Approach Data ]
ABOUT SSD CREDITS/AWARDS PRIVACY/COPYRIGHT GLOSSARY LINKS
FirstGov
(server date/time)  
NASA Home Page
Site Manager:   Ryan S. Park
Webmaster  Alan B. Chamberlin